[[{"header":{"parameterUnit":"m.s-1","parameterCategory":1,"la1":30.2991,"la2":30.254,"lo1":-89.0895,"lo2":-89.0444,"dy":0.0017,"dx":0.0017,"nx":28,"ny":28,"refTime":"2024-08-23T09:00:00:Z","depth":0,"parameterNumber":2,"parameterNumberName":"U-component_of_WINDS"},"data":[0,0,0,0,0,0,0,0,0,0,0,0,0,0,0,0,0,0,0,0,0,0,0,0,0,0,0,0,0,0,0,0,0,0,0,0,0,0,0,0,0,0,0,0,0,0,0,0,0,0,0,0,0,0,0,0,0,0,-5.2173,-5.2174,0,-5.2253,-5.2254,-5.2255,-5.2144,-5.214,-5.2136,-5.2132,-5.2215,-5.2221,-5.2226,0,0,0,0,0,0,0,0,0,0,0,0,0,-5.1927,-5.1932,-5.2173,-5.2174,-5.2175,-5.2253,-5.2254,-5.2255,-5.2145,-5.214,-5.2135,-5.2131,-5.2213,-5.222,-5.2227,0,0,0,0,0,0,0,0,0,0,0,0,0,-5.2023,-5.1933,-5.2173,-5.213,-5.2126,-5.2253,-5.2254,-5.2256,-5.2146,-5.214,-5.2134,-5.2128,-5.2211,-5.2219,-5.2228,-5.2401,0,0,-5.2255,-5.2259,0,0,0,0,0,0,0,0,-5.2018,-5.2032,-5.2135,-5.2133,-5.213,-5.2183,-5.2197,-5.2304,-5.2147,-5.2139,-5.2132,-5.2125,-5.2209,-5.2218,-5.2246,-5.2405,-5.2408,-5.2256,-5.2261,-5.2265,-5.2267,0,0,0,0,0,0,0,-5.2011,-5.2028,-5.2205,-5.2137,-5.2133,-5.2106,-5.2114,-5.2217,-5.2206,-5.2139,-5.2131,-5.2142,-5.2206,-5.2237,-5.2247,-5.241,-5.2255,-5.2263,-5.2269,-5.2272,-5.2717,-5.2723,0,0,0,0,0,0,-5.2009,-5.2023,-5.2202,-5.2207,-5.2058,-5.2116,-5.2124,-5.2172,-5.2205,-5.2204,-5.2147,-5.2136,-5.2225,-5.2237,-5.2249,-5.2455,-5.2265,-5.2273,-5.2278,-5.2711,-5.2718,-5.2726,0,0,0,0,0,0,-5.2005,-5.2026,-5.2199,-5.2113,-5.2133,-5.2126,-5.2181,-5.2176,-5.2207,-5.2211,-5.2208,-5.2181,-5.2221,-5.2237,-5.2364,-5.2457,-5.2277,-5.2285,-5.2703,-5.2713,-5.2722,-5.2869,0,0,0,0,0,0,-5.1998,-5.2025,-5.2091,-5.2116,-5.2138,-5.2313,-5.2187,-5.2182,-5.2223,-5.221,-5.2242,-5.2241,-5.2218,-5.2352,-5.2373,-5.2466,-5.2292,-5.2695,-5.2707,-5.2719,-5.2856,-5.2882,-5.2905,0,0,0,0,0,-5.199,-5.2129,-5.2095,-5.2117,-5.222,-5.2319,-5.2332,-5.2301,-5.223,-5.2296,-5.2299,-5.224,-5.2443,-5.2366,-5.2389,-5.2485,-5.2689,-5.2704,-5.2718,-5.2845,-5.2877,-5.2905,0,0,0,0,0,0,-5.2115,-5.2131,-5.2093,-5.2245,-5.2281,-5.23,-5.2382,-5.2337,-5.2394,-5.238,-5.234,-5.2348,-5.2485,-5.2497,-5.2411,-5.2656,-5.2554,-5.2574,-5.2643,-5.2674,-5.2698,-5.2692,-5.2299,0,0,0,0,0,-5.216,-5.2239,-5.2248,-5.2381,-5.2401,-5.2389,-5.2431,-5.2405,-5.2441,-5.2456,-5.2467,-5.2505,-5.2577,-5.2626,-5.2692,-5.2857,-5.2863,-5.2935,-5.2959,-5.298,-5.2998,-5.3088,-5.312,-5.2774,-5.2774,-5.2773,0,0,-5.2254,-5.2273,-5.2325,-5.2407,-5.2432,-5.2515,-5.2403,-5.2495,-5.2557,-5.247,-5.2591,-5.2602,-5.2641,-5.2789,-5.2854,-5.2804,-5.3095,-5.2998,-5.3015,-5.3022,-5.3106,-5.3139,-5.3168,-5.2784,-5.2782,-5.278,0,0,-5.2468,-5.249,-5.2603,-5.2631,-5.2671,-5.2662,-5.2689,-5.2715,-5.2719,-5.284,-5.2778,-5.2851,-5.2975,-5.3007,-5.3039,-5.3268,-5.3216,-5.329,-5.342,-5.3508,-5.3535,-5.3559,-5.3642,-5.3672,-5.3308,-5.3308,-5.3309,0,-5.258,-5.2703,-5.2667,-5.2765,-5.2803,-5.2729,-5.2844,-5.2873,-5.2933,-5.2962,-5.2904,-5.306,-5.3081,-5.3236,-5.3292,-5.332,-5.3351,-5.3287,-5.3534,-5.3558,-5.358,-5.3659,-5.369,-5.3317,-5.3316,-5.3315,-5.3315,0,-5.2839,-5.2925,-5.3012,-5.3073,-5.3121,-5.3227,-5.3208,-5.3261,-5.3231,-5.3229,-5.3355,-5.3378,-5.3449,-5.3483,-5.3454,-5.3635,-5.3602,-5.354,-5.3437,-5.3622,-5.3696,-5.3725,-5.333,-5.3327,-5.3324,-5.3322,0,0,-5.3134,-5.3174,-5.3207,-5.3234,-5.3273,-5.3339,-5.3443,-5.3512,-5.3559,-5.3603,-5.369,-5.3798,-5.3741,-5.3778,-5.3752,-5.383,-5.4011,-5.3758,-5.3758,-5.3806,-5.4214,-5.4261,-5.4296,-5.3977,-5.3983,-5.3987,-5.4211,0,-5.3349,-5.3527,-5.3499,-5.3672,-5.3752,-5.3683,-5.3773,-5.3808,-5.3809,-5.3877,-5.3878,-5.3956,-5.3874,-5.3896,-5.397,-5.3974,-5.4093,-5.3957,-5.4059,-5.4063,-5.4052,-5.4334,-5.4384,-5.4594,-5.4239,-5.4244,-5.4247,0,-5.3624,-5.3679,-5.386,-5.3888,-5.3921,-5.4002,-5.4064,-5.413,-5.4168,-5.4164,-5.4206,-5.4167,-5.4271,-5.4166,-5.431,-5.4219,-5.4258,-5.4267,-5.4274,-5.4284,-5.4167,-5.4353,-5.466,-5.4692,-5.4292,-5.4288,-5.4285,0,-5.3823,-5.3942,-5.4066,-5.4091,-5.4127,-5.4186,-5.4204,-5.4236,-5.428,-5.4334,-5.4363,-5.4429,-5.4466,-5.4518,-5.4498,-5.4424,-5.4647,-5.454,-5.4648,-5.4648,-5.4698,-5.4696,-5.5018,-5.4722,-5.4722,-5.4721,-5.4721,0,-5.4067,-5.4181,-5.4156,-5.4233,-5.4359,-5.4326,-5.4451,-5.4461,-5.449,-5.4568,-5.4512,-5.4587,-5.4555,-5.4628,-5.4613,-5.4735,-5.4752,-5.4752,-5.4747,-5.4758,-5.4758,-5.4784,-5.477,-5.473,-5.4728,-5.4726,-5.4725,0,-5.4311,-5.4299,-5.443,-5.4453,-5.4462,-5.4554,-5.4574,-5.4646,-5.4643,-5.4742,-5.4764,-5.4759,-5.4842,-5.4827,-5.4918,-5.4908,-5.5062,-5.5039,-5.505,-5.5045,-5.5153,-5.5144,-5.5505,-5.5551,-5.5224,-5.5227,-5.523,0,-5.4468,-5.4554,-5.4587,-5.4635,-5.4657,-5.4735,-5.478,-5.4751,-5.4801,-5.4852,-5.4919,-5.4996,-5.5057,-5.5193,-5.5198,-5.5268,-5.5247,-5.5368,-5.5257,-5.5266,-5.5251,-5.5246,-5.5256,-5.5391,-5.5395,-5.5398,-5.54,0,-5.4748,-5.4739,-5.4805,-5.4872,-5.4927,-5.4977,-5.5022,-5.5065,-5.504,-5.5099,-5.5183,-5.523,-5.5324,-5.5403,-5.5469,-5.5487,-5.5441,-5.5435,-5.5464,-5.5477,-5.548,-5.5481,-5.5112,-5.5427,-5.5424,-5.5422,-5.5421,-5.542,-5.4955,-5.5029,-5.5064,-5.5141,-5.5172,-5.5216,-5.5285,-5.5291,-5.5361,-5.5435,-5.5414,-5.551,-5.5547,-5.5631,-5.5657,-5.5733,-5.5688,-5.5729,-5.574,-5.5751,-5.5765,-5.5468,-5.5744,-5.5743,-5.5743,-5.5742,-5.5741,0,-5.5234,-5.5253,-5.5324,-5.5389,-5.5451,-5.5401,-5.5449,-5.5503,-5.5589,-5.5627,-5.5688,-5.5786,-5.5863,-5.5875,-5.5947,-5.6006,-5.5987,-5.6026,-5.6022,-5.6028,-5.58,-5.5768,-5.6041,-5.6041,-5.6041,-5.604,-5.604,-5.604,-5.5386,-5.5509,-5.5504,-5.5643,-5.5661,-5.5755,-5.5787,-5.5827,-5.5858,-5.597,-5.6033,-5.604,-5.6069,-5.6144,-5.6212,-5.6214,-5.6244,-5.6292,-5.6286,-5.6073,-5.6043,-5.6015,-5.5985,-5.6299,-5.6299,-5.6508,-5.651,-5.6511]},{"header":{"parameterUnit":"m.s-1","parameterCategory":1,"la1":30.2991,"la2":30.254,"lo1":-89.0895,"lo2":-89.0444,"dy":0.0017,"dx":0.0017,"nx":28,"ny":28,"refTime":"2024-08-23T09:00:00:Z","depth":0,"parameterNumber":3,"parameterNumberName":"V-component_of_WINDS"},"data":[0,0,0,0,0,0,0,0,0,0,0,0,0,0,0,0,0,0,0,0,0,0,0,0,0,0,0,0,0,0,0,0,0,0,0,0,0,0,0,0,0,0,0,0,0,0,0,0,0,0,0,0,0,0,0,0,0,0,-0.0746,-0.0747,0,-0.0811,-0.0812,-0.0813,-0.0837,-0.0837,-0.0836,-0.0836,-0.0903,-0.0904,-0.0906,0,0,0,0,0,0,0,0,0,0,0,0,0,-0.0642,-0.0644,-0.0746,-0.0747,-0.0748,-0.0811,-0.0812,-0.0813,-0.0837,-0.0837,-0.0836,-0.0836,-0.0902,-0.0904,-0.0907,0,0,0,0,0,0,0,0,0,0,0,0,0,-0.0695,-0.0644,-0.0746,-0.0768,-0.077,-0.0811,-0.0812,-0.0813,-0.0837,-0.0837,-0.0836,-0.0836,-0.0901,-0.0904,-0.0907,-0.0931,0,0,-0.0916,-0.0917,0,0,0,0,0,0,0,0,-0.0692,-0.0699,-0.0764,-0.0766,-0.0769,-0.0816,-0.08,-0.0853,-0.0837,-0.0812,-0.0836,-0.0836,-0.0874,-0.0879,-0.0892,-0.0934,-0.0937,-0.0916,-0.0918,-0.0919,-0.092,0,0,0,0,0,0,0,-0.0688,-0.0696,-0.0772,-0.0764,-0.0768,-0.0773,-0.0781,-0.081,-0.0844,-0.0814,-0.0816,-0.0823,-0.0875,-0.0889,-0.0894,-0.0938,-0.0916,-0.0919,-0.092,-0.0922,-0.1003,-0.1004,0,0,0,0,0,0,-0.0681,-0.0693,-0.077,-0.0774,-0.0729,-0.0776,-0.0784,-0.0801,-0.0843,-0.085,-0.0823,-0.0824,-0.0884,-0.089,-0.0896,-0.0928,-0.0919,-0.0922,-0.0924,-0.1003,-0.1003,-0.1004,0,0,0,0,0,0,-0.0679,-0.0688,-0.0767,-0.0734,-0.0745,-0.0778,-0.0797,-0.0802,-0.0816,-0.0851,-0.0857,-0.0831,-0.0884,-0.0892,-0.0922,-0.093,-0.0923,-0.0926,-0.1002,-0.1003,-0.1004,-0.0991,0,0,0,0,0,0,-0.0676,-0.0687,-0.0697,-0.0734,-0.0746,-0.0793,-0.0798,-0.0804,-0.0821,-0.0823,-0.086,-0.0865,-0.0884,-0.0918,-0.0925,-0.0934,-0.0928,-0.1002,-0.1003,-0.1003,-0.0991,-0.0991,-0.0991,0,0,0,0,0,-0.0672,-0.0691,-0.0697,-0.0707,-0.076,-0.0793,-0.08,-0.0822,-0.0822,-0.0832,-0.0854,-0.0864,-0.0928,-0.0921,-0.0929,-0.0939,-0.1002,-0.1002,-0.1003,-0.099,-0.0991,-0.0991,0,0,0,0,0,0,-0.0654,-0.0696,-0.0704,-0.0735,-0.0761,-0.0797,-0.0811,-0.0822,-0.0847,-0.0848,-0.0873,-0.0881,-0.091,-0.0927,-0.0919,-0.0965,-0.0965,-0.0968,-0.0952,-0.0953,-0.0953,-0.0949,-0.0931,0,0,0,0,0,-0.0654,-0.0678,-0.0713,-0.0737,-0.075,-0.0778,-0.0793,-0.0808,-0.0835,-0.0846,-0.087,-0.0896,-0.0921,-0.0938,-0.0963,-0.0992,-0.1001,-0.1003,-0.1003,-0.1003,-0.1006,-0.1022,-0.1024,-0.1007,-0.1007,-0.1007,0,0,-0.0653,-0.0679,-0.0693,-0.0734,-0.0756,-0.078,-0.0787,-0.0812,-0.083,-0.085,-0.088,-0.0898,-0.0928,-0.0958,-0.0972,-0.0974,-0.1012,-0.1005,-0.1004,-0.1007,-0.1023,-0.1025,-0.1026,-0.1007,-0.1007,-0.1007,0,0,-0.0666,-0.0687,-0.071,-0.0731,-0.0763,-0.0781,-0.0786,-0.0821,-0.0834,-0.0865,-0.088,-0.0901,-0.0945,-0.0966,-0.0982,-0.1,-0.1011,-0.1007,-0.1009,-0.1025,-0.1026,-0.1027,-0.1034,-0.1036,-0.1009,-0.1009,-0.1009,0,-0.0662,-0.0699,-0.072,-0.0745,-0.0763,-0.078,-0.0803,-0.0822,-0.0861,-0.0872,-0.0873,-0.0927,-0.0949,-0.0984,-0.0988,-0.1,-0.1007,-0.1004,-0.1024,-0.1025,-0.1027,-0.1034,-0.1036,-0.1009,-0.1009,-0.1009,-0.1009,0,-0.0692,-0.0718,-0.0732,-0.0769,-0.0787,-0.0811,-0.0836,-0.0852,-0.0864,-0.0882,-0.0912,-0.0939,-0.097,-0.0978,-0.0991,-0.1015,-0.1014,-0.1019,-0.102,-0.1028,-0.1035,-0.1037,-0.1008,-0.1008,-0.1008,-0.1009,0,0,-0.0697,-0.0744,-0.0749,-0.0766,-0.0801,-0.0821,-0.0845,-0.0875,-0.0888,-0.0913,-0.0934,-0.097,-0.0974,-0.0992,-0.1007,-0.102,-0.1033,-0.1023,-0.1024,-0.1024,-0.1061,-0.1058,-0.1061,-0.1039,-0.1039,-0.104,-0.1058,0,-0.0715,-0.0759,-0.0778,-0.0813,-0.0837,-0.0852,-0.0873,-0.0897,-0.0913,-0.0936,-0.0954,-0.0979,-0.0983,-0.0994,-0.1008,-0.1028,-0.104,-0.1027,-0.1059,-0.1059,-0.1052,-0.1064,-0.1062,-0.1078,-0.1061,-0.1062,-0.1062,0,-0.0742,-0.0767,-0.0804,-0.0836,-0.0847,-0.0865,-0.0894,-0.0914,-0.0941,-0.0952,-0.0972,-0.0985,-0.101,-0.1008,-0.1042,-0.1033,-0.1046,-0.1058,-0.1059,-0.1064,-0.1062,-0.107,-0.1084,-0.1086,-0.1066,-0.1066,-0.1065,0,-0.0743,-0.0786,-0.0814,-0.0827,-0.0865,-0.0877,-0.0893,-0.0919,-0.0936,-0.096,-0.0971,-0.0998,-0.1013,-0.1033,-0.1053,-0.105,-0.1086,-0.1085,-0.1096,-0.1095,-0.1104,-0.1104,-0.1121,-0.1111,-0.1111,-0.1111,-0.1111,0,-0.0762,-0.0784,-0.0814,-0.0832,-0.0857,-0.0878,-0.0902,-0.0919,-0.0942,-0.0962,-0.0977,-0.0996,-0.102,-0.1042,-0.1057,-0.1083,-0.109,-0.1099,-0.1104,-0.1099,-0.1098,-0.111,-0.1109,-0.1111,-0.1111,-0.1111,-0.1111,0,-0.0768,-0.0789,-0.0821,-0.0853,-0.0861,-0.0879,-0.0906,-0.0923,-0.094,-0.0965,-0.0972,-0.0999,-0.1025,-0.1046,-0.108,-0.109,-0.1118,-0.1122,-0.1109,-0.1111,-0.1121,-0.112,-0.1147,-0.1152,-0.1137,-0.1137,-0.1138,0,-0.0779,-0.0797,-0.0831,-0.0845,-0.0861,-0.0885,-0.0901,-0.0922,-0.0939,-0.0969,-0.0982,-0.1009,-0.1032,-0.1073,-0.1095,-0.112,-0.1126,-0.1133,-0.113,-0.1125,-0.1127,-0.1126,-0.1128,-0.1134,-0.1134,-0.1135,-0.1135,0,-0.0798,-0.0807,-0.083,-0.0857,-0.0877,-0.0899,-0.0921,-0.0932,-0.0956,-0.0974,-0.1001,-0.1018,-0.1052,-0.1079,-0.1107,-0.1123,-0.1133,-0.1135,-0.1139,-0.1135,-0.1128,-0.1133,-0.1111,-0.1135,-0.1135,-0.1135,-0.1135,-0.1135,-0.0808,-0.0824,-0.085,-0.0875,-0.0894,-0.0914,-0.0932,-0.095,-0.0973,-0.1002,-0.1012,-0.104,-0.1064,-0.1102,-0.1118,-0.114,-0.1141,-0.1146,-0.1148,-0.1149,-0.1149,-0.1123,-0.1145,-0.1145,-0.1145,-0.1145,-0.1145,0,-0.0828,-0.0845,-0.0868,-0.0898,-0.0918,-0.0924,-0.0949,-0.0965,-0.0989,-0.1011,-0.1033,-0.1063,-0.1088,-0.1111,-0.1137,-0.115,-0.1155,-0.1156,-0.1156,-0.116,-0.1146,-0.1141,-0.1151,-0.1151,-0.1151,-0.1151,-0.1151,-0.1151,-0.0841,-0.0868,-0.088,-0.0916,-0.0933,-0.096,-0.0974,-0.0992,-0.101,-0.1043,-0.1063,-0.1078,-0.11,-0.1128,-0.1151,-0.1157,-0.1166,-0.1166,-0.1174,-0.1161,-0.116,-0.116,-0.1155,-0.1168,-0.1168,-0.1185,-0.1186,-0.1186]}]]